Prescott, AZ

6:12 AM MST on February 14, 2016 (GMT -0700)
Love

Weather History for KPRC - October, 2014

Change the Weather History Date:

Thursday, October 23, 2014

  Actual Average Record
Temperature  
Mean Temperature 62 °F 54 °F  
Max Temperature 79 °F 69 °F 85 °F (2003)
Min Temperature 45 °F 39 °F 24 °F (1996)
Degree Days  
Heating Degree Days 3    
Month to date heating degree days 80  
Since 1 July heating degree days 105  
Cooling Degree Days 0    
Month to date cooling degree days 0  
Year to date cooling degree days 1039  
Growing Degree Days 12 (Base 50)    
Moisture  
Dew Point 37 °F    
Average Humidity 46    
Maximum Humidity 71    
Minimum Humidity 20    
Precipitation  
Precipitation 0.00 in 0.03 in 0.96 in (1987)
Month to date precipitation 0.14 0.70  
Year to date precipitation 10.20 11.87  
Sea Level Pressure  
Sea Level Pressure 30.05 in    
Wind  
Wind Speed 4 mph (South)    
Max Wind Speed 10 mph    
Max Gust Speed 14 mph    
Visibility 10 miles    
Events      
T = Trace of Precipitation, MM = Missing Value Source: NWS Daily Summary

Daily Weather History Graph

Daily Weather History Graph

Search for Another Location

Airport or City:

Trip Planner

Search our weather history database for the weather conditions in past years. The results will help you decide how hot, cold, wet, or windy it might be!

Date:

Astronomy

Oct. 23, 2014 Rise Set
Actual Time 6:42 AM MST 5:45 PM MST
Civil Twilight 6:16 AM MST 6:10 PM MST
Nautical Twilight 5:46 AM MST 6:40 PM MST
Astronomical Twilight 5:17 AM MST 7:09 PM MST
Moon 6:26 AM MST (10/23) 5:49 PM MST (10/23)
Length of Visible Light 11h 54m
Length of Day
11h 03m
Waning Crescent, 0% of the Moon is Illuminated
Oct 23
Waning Crescent
Oct 23
New
Oct 30
First Quarter
Nov 6
Full
Nov 14
Last Quarter

Hourly Weather History & Observations

Time (MST) Temp. Windchill Dew Point Humidity Pressure Visibility Wind Dir Wind Speed Gust Speed Precip Events Conditions
12:53 AM 51.1 °F - 37.9 °F 61% 30.02 in 10.0 mi South 5.8 mph - N/A   Clear
1:53 AM 50.0 °F - 37.0 °F 61% 30.03 in 10.0 mi SSW 5.8 mph - N/A   Clear
2:53 AM 50.0 °F - 37.0 °F 61% 30.02 in 10.0 mi South 6.9 mph - N/A   Clear
3:53 AM 46.9 °F - 36.0 °F 66% 30.04 in 10.0 mi South 6.9 mph - N/A   Clear
4:53 AM 46.0 °F 43.1 °F 37.0 °F 71% 30.03 in 10.0 mi South 5.8 mph - N/A   Clear
5:53 AM 46.9 °F - 36.0 °F 66% 30.05 in 10.0 mi SSW 5.8 mph - N/A   Clear
6:53 AM 46.0 °F - 35.1 °F 66% 30.09 in 10.0 mi Calm Calm - N/A   Clear
7:53 AM 53.1 °F - 37.0 °F 55% 30.11 in 10.0 mi Calm Calm - N/A   Clear
8:53 AM 57.9 °F - 37.0 °F 46% 30.11 in 10.0 mi Calm Calm - N/A   Clear
9:53 AM 66.0 °F - 37.0 °F 34% 30.09 in 10.0 mi Calm Calm - N/A   Clear
10:53 AM 72.0 °F - 37.0 °F 28% 30.07 in 10.0 mi Calm Calm - N/A   Clear
11:53 AM 75.9 °F - 36.0 °F 23% 30.06 in 10.0 mi Calm Calm - N/A   Clear
12:53 PM 77.0 °F - 34.0 °F 21% 30.03 in 10.0 mi ENE 5.8 mph - N/A   Clear
1:53 PM 78.1 °F - 37.0 °F 23% 30.00 in 10.0 mi SSE 6.9 mph - N/A   Clear
2:53 PM 77.0 °F - 37.0 °F 24% 29.99 in 10.0 mi Calm Calm - N/A   Clear
3:53 PM 78.1 °F - 37.9 °F 24% 29.99 in 10.0 mi Variable 5.8 mph - N/A   Clear
4:53 PM 75.9 °F - 36.0 °F 23% 30.01 in 10.0 mi SE 9.2 mph - N/A   Clear
5:53 PM 70.0 °F - 37.9 °F 31% 30.03 in 10.0 mi South 4.6 mph - N/A   Clear
6:53 PM 64.0 °F - 39.0 °F 40% 30.07 in 10.0 mi Calm Calm - N/A   Clear
7:53 PM 59.0 °F - 39.9 °F 49% 30.07 in 10.0 mi South 6.9 mph - N/A   Clear
8:53 PM 55.9 °F - 41.0 °F 57% 30.08 in 10.0 mi South 6.9 mph - N/A   Clear
9:53 PM 55.0 °F - 39.9 °F 57% 30.06 in 10.0 mi SSW 8.1 mph - N/A   Clear
10:53 PM 51.1 °F - 39.9 °F 66% 30.06 in 10.0 mi South 5.8 mph - N/A   Clear
11:53 PM 52.0 °F - 39.0 °F 61% 30.05 in 10.0 mi Calm Calm - N/A   Clear